When you browse on this site, cookies collect data to enhance your experience and personalize the content and advertising you see.
Visit our Privacy Policy to learn more. By continuing to use the site, you agree to this use of cookies and data.
  • In Latvia
  • List of Countries
  • For 7 days
  • Water Temperature
  • Weather Map
  • Weather Widgets
  • user-avatar
    Login

    Hourly Weather Brisbane

    Today, 13 November, Wednesday

    Time Temperature Precipitation Wind Pressure Humidity
    00:00 +24°C° 0 mm 3 mps 755 mmHg 61%
    01:00 +23°C° 0 mm 2 mps 755 mmHg 63%
    02:00 +23°C° 0 mm 2 mps 755 mmHg 63%
    03:00 +21°C° 0 mm 2 mps 755 mmHg 62%
    04:00 +21°C° 0 mm 2 mps 755 mmHg 62%
    05:00 +22°C° 0 mm 3 mps 755 mmHg 56%
    06:00 +25°C° 0 mm 4 mps 756 mmHg 49%
    07:00 +27°C° 0 mm 5 mps 757 mmHg 42%
    08:00 +29°C° 0 mm 4 mps 757 mmHg 36%
    09:00 +33°C° 0 mm 3 mps 757 mmHg 31%
    10:00 +35°C° 0 mm 2 mps 756 mmHg 25%
    11:00 +34°C° 0 mm 4 mps 756 mmHg 31%
    12:00 +33°C° 0 mm 5 mps 756 mmHg 38%
    13:00 +32°C° 0 mm 6 mps 755 mmHg 44%
    14:00 +29°C° 0 mm 6 mps 755 mmHg 49%
    15:00 +28°C° 0 mm 6 mps 755 mmHg 53%
    16:00 +27°C° 0 mm 6 mps 755 mmHg 58%
    17:00 +25°C° 0 mm 5 mps 756 mmHg 63%
    18:00 +23°C° 0 mm 4 mps 757 mmHg 69%
    19:00 +21°C° 0 mm 4 mps 758 mmHg 74%
    20:00 +21°C° 0 mm 3 mps 758 mmHg 74%
    21:00 +21°C° 0 mm 3 mps 759 mmHg 75%
    22:00 +21°C° 0 mm 2 mps 759 mmHg 75%
    23:00 +20°C° 0 mm 2 mps 759 mmHg 75%

    Tomorrow, 14 November, Thursday

    Time Temperature Precipitation Wind Pressure Humidity
    00:00 +20°C° 0 mm 3 mps 759 mmHg 75%
    01:00 +20°C° 0 mm 3 mps 759 mmHg 75%
    02:00 +20°C° 0 mm 2 mps 759 mmHg 74%
    03:00 +20°C° 0 mm 2 mps 759 mmHg 73%
    04:00 +20°C° 0 mm 2 mps 759 mmHg 72%
    05:00 +21°C° 0 mm 2 mps 759 mmHg 68%
    06:00 +23°C° 0 mm 2 mps 760 mmHg 63%
    07:00 +24°C° 0 mm 2 mps 760 mmHg 58%
    08:00 +26°C° 0 mm 2 mps 760 mmHg 50%
    09:00 +29°C° 0 mm 2 mps 760 mmHg 42%
    10:00 +31°C° 0 mm 1 mps 760 mmHg 34%
    11:00 +32°C° 0 mm 2 mps 759 mmHg 32%
    12:00 +32°C° 0 mm 2 mps 758 mmHg 31%
    13:00 +34°C° 0 mm 3 mps 758 mmHg 29%
    14:00 +32°C° 0 mm 4 mps 757 mmHg 36%
    15:00 +30°C° 0 mm 4 mps 757 mmHg 44%
    16:00 +29°C° 0 mm 5 mps 756 mmHg 51%
    17:00 +27°C° 0 mm 4 mps 757 mmHg 61%
    18:00 +25°C° 0 mm 4 mps 758 mmHg 71%
    19:00 +22°C° 0 mm 3 mps 758 mmHg 82%
    20:00 +23°C° 0 mm 2 mps 759 mmHg 83%
    21:00 +23°C° 0 mm 2 mps 759 mmHg 84%
    22:00 +23°C° 0 mm 1 mps 760 mmHg 85%
    23:00 +23°C° 0.1 mm 1 mps 760 mmHg 86%

    Day after tomorrow, 15 November, Friday

    Time Temperature Precipitation Wind Pressure Humidity
    00:00 +23°C° 0.1 mm 1 mps 759 mmHg 87%
    01:00 +20°C° 0.1 mm 0 mps 759 mmHg 87%
    02:00 +20°C° 0 mm 0 mps 759 mmHg 88%
    03:00 +22°C° 0 mm 1 mps 759 mmHg 89%
    04:00 +21°C° 0 mm 1 mps 759 mmHg 90%
    05:00 +22°C° 0 mm 1 mps 759 mmHg 85%
    06:00 +24°C° 0 mm 1 mps 759 mmHg 79%
    07:00 +23°C° 0 mm 0 mps 760 mmHg 74%
    08:00 +27°C° 0 mm 1 mps 760 mmHg 61%
    09:00 +30°C° 0 mm 1 mps 760 mmHg 49%
    10:00 +33°C° 0 mm 1 mps 759 mmHg 36%
    11:00 +34°C° 0 mm 2 mps 759 mmHg 33%
    12:00 +35°C° 0 mm 3 mps 758 mmHg 31%
    13:00 +36°C° 0 mm 4 mps 757 mmHg 28%
    14:00 +34°C° 0 mm 4 mps 757 mmHg 35%
    15:00 +33°C° 0 mm 5 mps 756 mmHg 41%
    16:00 +32°C° 0 mm 5 mps 756 mmHg 48%
    17:00 +29°C° 0 mm 5 mps 756 mmHg 57%
    18:00 +27°C° 0 mm 5 mps 757 mmHg 67%
    19:00 +25°C° 0 mm 5 mps 757 mmHg 77%
    20:00 +25°C° 0 mm 4 mps 758 mmHg 77%
    21:00 +23°C° 0 mm 4 mps 758 mmHg 78%
    22:00 +24°C° 0 mm 3 mps 759 mmHg 79%
    23:00 +22°C° 0 mm 3 mps 758 mmHg 80%

    16 November, Saturday

    Time Temperature Precipitation Wind Pressure Humidity
    00:00 +23°C° 0 mm 2 mps 758 mmHg 82%
    01:00 +21°C° 0 mm 2 mps 758 mmHg 83%
    02:00 +21°C° 0 mm 2 mps 758 mmHg 84%
    03:00 +21°C° 0 mm 1 mps 758 mmHg 84%
    04:00 +21°C° 0 mm 1 mps 758 mmHg 85%
    05:00 +23°C° 0 mm 1 mps 759 mmHg 77%
    06:00 +24°C° 0 mm 2 mps 759 mmHg 69%
    07:00 +26°C° 0 mm 2 mps 759 mmHg 61%
    08:00 +29°C° 0 mm 2 mps 759 mmHg 49%
    09:00 +32°C° 0 mm 2 mps 759 mmHg 38%
    10:00 +36°C° 0 mm 2 mps 759 mmHg 27%
    11:00 +36°C° 0 mm 3 mps 758 mmHg 27%
    12:00 +36°C° 0 mm 3 mps 758 mmHg 27%
    13:00 +36°C° 0 mm 4 mps 757 mmHg 27%
    14:00 +35°C° 0 mm 4 mps 757 mmHg 34%
    15:00 +33°C° 0 mm 5 mps 756 mmHg 41%
    16:00 +32°C° 0 mm 5 mps 756 mmHg 48%
    17:00 +30°C° 0 mm 4 mps 757 mmHg 52%
    18:00 +29°C° 0 mm 4 mps 757 mmHg 57%
    19:00 +28°C° 0 mm 3 mps 758 mmHg 61%
    20:00 +27°C° 0 mm 3 mps 758 mmHg 66%
    21:00 +26°C° 0 mm 3 mps 759 mmHg 70%
    22:00 +25°C° 0 mm 2 mps 759 mmHg 75%
    23:00 +24°C° 0 mm 2 mps 759 mmHg 79%

    17 November, Sunday

    Time Temperature Precipitation Wind Pressure Humidity
    00:00 +23°C° 0 mm 2 mps 759 mmHg 82%
    01:00 +23°C° 0 mm 2 mps 759 mmHg 86%
    02:00 +22°C° 0 mm 1 mps 758 mmHg 86%
    03:00 +22°C° 0 mm 1 mps 758 mmHg 87%
    04:00 +22°C° 0 mm 1 mps 758 mmHg 87%
    05:00 +21°C° 0 mm 0 mps 759 mmHg 80%
    06:00 +23°C° 0 mm 0 mps 759 mmHg 74%
    07:00 +24°C° 0 mm 0 mps 759 mmHg 67%
    08:00 +29°C° 0 mm 1 mps 759 mmHg 56%
    09:00 +31°C° 0 mm 2 mps 759 mmHg 44%
    10:00 +35°C° 0 mm 3 mps 759 mmHg 32%
    11:00 +35°C° 0 mm 4 mps 758 mmHg 33%
    12:00 +35°C° 0 mm 5 mps 757 mmHg 34%
    13:00 +35°C° 0 mm 6 mps 756 mmHg 35%
    14:00 +35°C° 0 mm 6 mps 755 mmHg 34%
    15:00 +35°C° 0 mm 6 mps 755 mmHg 33%
    16:00 +35°C° 0 mm 6 mps 754 mmHg 32%
    17:00 +33°C° 0 mm 6 mps 754 mmHg 39%
    18:00 +30°C° 0 mm 6 mps 755 mmHg 46%
    19:00 +28°C° 0 mm 7 mps 755 mmHg 54%
    20:00 +27°C° 0 mm 5 mps 756 mmHg 55%
    21:00 +27°C° 0 mm 3 mps 756 mmHg 56%
    22:00 +26°C° 0 mm 2 mps 756 mmHg 57%
    23:00 +26°C° 0 mm 2 mps 756 mmHg 57%

    18 November, Monday

    Time Temperature Precipitation Wind Pressure Humidity
    00:00 +25°C° 0 mm 2 mps 756 mmHg 57%
    01:00 +25°C° 0 mm 3 mps 756 mmHg 57%
    02:00 +24°C° 0 mm 2 mps 756 mmHg 61%
    03:00 +23°C° 0 mm 2 mps 756 mmHg 65%
    04:00 +22°C° 0 mm 1 mps 756 mmHg 69%
    05:00 +23°C° 0 mm 2 mps 757 mmHg 68%
    06:00 +24°C° 0 mm 2 mps 757 mmHg 66%
    07:00 +26°C° 0 mm 3 mps 758 mmHg 65%
    08:00 +26°C° 0 mm 3 mps 758 mmHg 60%
    09:00 +27°C° 0 mm 3 mps 758 mmHg 55%
    10:00 +28°C° 0 mm 3 mps 758 mmHg 50%
    11:00 +30°C° 0 mm 3 mps 757 mmHg 44%
    12:00 +32°C° 0 mm 4 mps 757 mmHg 38%
    13:00 +34°C° 0 mm 4 mps 756 mmHg 33%
    14:00 +32°C° 0 mm 5 mps 756 mmHg 37%
    15:00 +30°C° 0 mm 6 mps 756 mmHg 41%
    16:00 +28°C° 0 mm 7 mps 756 mmHg 46%
    17:00 +27°C° 0 mm 6 mps 757 mmHg 52%
    18:00 +24°C° 0 mm 6 mps 757 mmHg 58%
    19:00 +23°C° 0 mm 5 mps 758 mmHg 64%
    20:00 +22°C° 0 mm 4 mps 759 mmHg 68%
    21:00 +22°C° 0 mm 4 mps 759 mmHg 71%
    22:00 +21°C° 0 mm 4 mps 760 mmHg 74%
    23:00 +20°C° 0 mm 3 mps 760 mmHg 76%
    Show more